Year,Month,Day,Hour,Minute,Value (Times are PST for temperature in C)
2017,12,10,00,00,12.70
2017,12,10,00,01,12.60
2017,12,10,00,02,12.60
2017,12,10,00,03,12.50
2017,12,10,00,04,12.40
2017,12,10,00,05,12.30
2017,12,10,00,06,12.10
2017,12,10,00,07,11.80
2017,12,10,00,08,11.50
2017,12,10,00,09,11.30
2017,12,10,00,10,11.10
2017,12,10,00,11,10.90
2017,12,10,00,12,10.70
2017,12,10,00,13,10.60
2017,12,10,00,14,10.50
2017,12,10,00,15,10.40
2017,12,10,00,16,10.30
2017,12,10,00,17,10.30
2017,12,10,00,18,10.20
2017,12,10,00,19,10.10
2017,12,10,00,20,10.10
2017,12,10,00,21,10.10
2017,12,10,00,22,10.10
2017,12,10,00,23,10.00
2017,12,10,00,24,10.00
2017,12,10,00,25,10.00
2017,12,10,00,26,9.90
2017,12,10,00,27,9.90
2017,12,10,00,28,9.80
2017,12,10,00,29,9.70
2017,12,10,00,30,9.70
2017,12,10,00,31,9.60
2017,12,10,00,32,9.60
2017,12,10,00,33,9.60
2017,12,10,00,34,9.50
2017,12,10,00,35,9.50
2017,12,10,00,36,9.50
2017,12,10,00,37,9.50
2017,12,10,00,38,9.50
2017,12,10,00,39,9.60
2017,12,10,00,40,9.60
2017,12,10,00,41,9.60
2017,12,10,00,42,9.60
2017,12,10,00,43,9.60
2017,12,10,00,44,9.60
2017,12,10,00,45,9.60
2017,12,10,00,46,9.50
2017,12,10,00,47,9.60
2017,12,10,00,48,9.60
2017,12,10,00,49,9.70
2017,12,10,00,50,9.80
2017,12,10,00,51,9.90
2017,12,10,00,52,10.00
2017,12,10,00,53,10.10
2017,12,10,00,54,10.20
2017,12,10,00,55,10.30
2017,12,10,00,56,10.30
2017,12,10,00,57,10.30
2017,12,10,00,58,10.40
2017,12,10,00,59,10.40
2017,12,10,01,00,10.40
2017,12,10,01,01,10.50
2017,12,10,01,02,10.40
2017,12,10,01,03,10.40
2017,12,10,01,04,10.40
2017,12,10,01,05,10.40
2017,12,10,01,06,10.40
2017,12,10,01,07,10.40
2017,12,10,01,08,10.40
2017,12,10,01,09,10.40
2017,12,10,01,10,10.50
2017,12,10,01,11,10.60
2017,12,10,01,12,10.70
2017,12,10,01,13,10.70
2017,12,10,01,14,10.80
2017,12,10,01,15,10.80
2017,12,10,01,16,10.80
2017,12,10,01,17,10.80
2017,12,10,01,18,10.90
2017,12,10,01,19,10.90
2017,12,10,01,20,11.00
2017,12,10,01,21,11.00
2017,12,10,01,22,11.10
2017,12,10,01,23,11.10
2017,12,10,01,24,11.20
2017,12,10,01,25,11.20
2017,12,10,01,26,11.20
2017,12,10,01,27,11.30
2017,12,10,01,28,11.30
2017,12,10,01,29,11.30
2017,12,10,01,30,11.40
2017,12,10,01,31,11.40
2017,12,10,01,32,11.40
2017,12,10,01,33,11.50
2017,12,10,01,34,11.50
2017,12,10,01,35,11.60
2017,12,10,01,36,11.60
2017,12,10,01,37,11.70
2017,12,10,01,38,11.70
2017,12,10,01,39,11.60
2017,12,10,01,40,11.50
2017,12,10,01,41,11.40
2017,12,10,01,42,11.20
2017,12,10,01,43,11.00
2017,12,10,01,44,10.90
2017,12,10,01,45,10.70
2017,12,10,01,46,10.50
2017,12,10,01,47,10.30
2017,12,10,01,48,10.10
2017,12,10,01,49,9.90
2017,12,10,01,50,9.80
2017,12,10,01,51,9.60
2017,12,10,01,52,9.50
2017,12,10,01,53,9.40
2017,12,10,01,54,9.30
2017,12,10,01,55,9.20
2017,12,10,01,56,9.20
2017,12,10,01,57,9.10
2017,12,10,01,58,9.10
2017,12,10,01,59,9.00
2017,12,10,02,00,9.00
2017,12,10,02,01,9.00
2017,12,10,02,02,8.90
2017,12,10,02,03,8.90
2017,12,10,02,04,8.90
2017,12,10,02,05,8.90
2017,12,10,02,06,8.90
2017,12,10,02,07,8.90
2017,12,10,02,08,8.90
2017,12,10,02,09,8.90
2017,12,10,02,10,8.90
2017,12,10,02,11,8.90
2017,12,10,02,12,8.90
2017,12,10,02,13,9.00
2017,12,10,02,14,9.00
2017,12,10,02,15,9.00
2017,12,10,02,16,9.00
2017,12,10,02,17,9.10
2017,12,10,02,18,9.10
2017,12,10,02,19,9.10
2017,12,10,02,20,9.10
2017,12,10,02,21,9.10
2017,12,10,02,22,9.20
2017,12,10,02,23,9.20
2017,12,10,02,24,9.20
2017,12,10,02,25,9.20
2017,12,10,02,26,9.20
2017,12,10,02,27,9.30
2017,12,10,02,28,9.30
2017,12,10,02,29,9.30
2017,12,10,02,30,9.40
2017,12,10,02,31,9.40
2017,12,10,02,32,9.50
2017,12,10,02,33,9.60
2017,12,10,02,34,9.70
2017,12,10,02,35,9.80
2017,12,10,02,36,10.00
2017,12,10,02,37,10.10
2017,12,10,02,38,10.30
2017,12,10,02,39,10.60
2017,12,10,02,40,10.80
2017,12,10,02,41,11.00
2017,12,10,02,42,11.20
2017,12,10,02,43,11.30
2017,12,10,02,44,11.50
2017,12,10,02,45,11.60
2017,12,10,02,46,11.70
2017,12,10,02,47,11.80
2017,12,10,02,48,11.90
2017,12,10,02,49,11.90
2017,12,10,02,50,12.00
2017,12,10,02,51,12.10
2017,12,10,02,52,12.10
2017,12,10,02,53,12.20
2017,12,10,02,54,12.20
2017,12,10,02,55,12.20
2017,12,10,02,56,12.20
2017,12,10,02,57,12.30
2017,12,10,02,58,12.30
2017,12,10,02,59,12.30
2017,12,10,03,00,12.30
2017,12,10,03,01,12.30
2017,12,10,03,02,12.30
2017,12,10,03,03,12.30
2017,12,10,03,04,12.30
2017,12,10,03,05,12.30
2017,12,10,03,06,12.30
2017,12,10,03,07,12.30
2017,12,10,03,08,12.30
2017,12,10,03,09,12.30
2017,12,10,03,10,12.30
2017,12,10,03,11,12.30
2017,12,10,03,12,12.30
2017,12,10,03,13,12.20
2017,12,10,03,14,12.20
2017,12,10,03,15,12.20
2017,12,10,03,16,12.20
2017,12,10,03,17,12.20
2017,12,10,03,18,12.20
2017,12,10,03,19,12.20
2017,12,10,03,20,12.10
2017,12,10,03,21,12.10
2017,12,10,03,22,12.00
2017,12,10,03,23,11.90
2017,12,10,03,24,11.80
2017,12,10,03,25,11.70
2017,12,10,03,26,11.60
2017,12,10,03,27,11.60
2017,12,10,03,28,11.60
2017,12,10,03,29,11.60
2017,12,10,03,30,11.60
2017,12,10,03,31,11.60
2017,12,10,03,32,11.70
2017,12,10,03,33,11.70
2017,12,10,03,34,11.70
2017,12,10,03,35,11.70
2017,12,10,03,36,11.70
2017,12,10,03,37,11.60
2017,12,10,03,38,11.60
2017,12,10,03,39,11.50
2017,12,10,03,40,11.50
2017,12,10,03,41,11.40
2017,12,10,03,42,11.40
2017,12,10,03,43,11.30
2017,12,10,03,44,11.20
2017,12,10,03,45,11.10
2017,12,10,03,46,11.10
2017,12,10,03,47,11.10
2017,12,10,03,48,11.10
2017,12,10,03,49,11.10
2017,12,10,03,50,11.10
2017,12,10,03,51,11.10
2017,12,10,03,52,11.10
2017,12,10,03,53,11.10
2017,12,10,03,54,11.10
2017,12,10,03,55,11.10
2017,12,10,09,01,8.80
2017,12,10,09,02,8.80
2017,12,10,09,03,8.80
2017,12,10,09,04,8.80
2017,12,10,09,05,8.80
2017,12,10,09,06,8.80
2017,12,10,09,07,8.80
2017,12,10,09,08,8.80
2017,12,10,09,09,8.80
2017,12,10,09,10,8.80
2017,12,10,09,11,8.80
2017,12,10,09,12,8.80
2017,12,10,09,13,8.80
2017,12,10,09,14,8.80
2017,12,10,09,15,8.80
2017,12,10,09,16,8.80
2017,12,10,09,17,8.80
2017,12,10,09,18,8.80
2017,12,10,09,19,8.80
2017,12,10,09,20,8.80
2017,12,10,09,21,8.80
2017,12,10,09,22,8.80
2017,12,10,09,23,8.80
2017,12,10,09,24,8.80
2017,12,10,09,25,8.80
2017,12,10,09,26,8.80
2017,12,10,09,27,8.80
2017,12,10,09,28,8.80
2017,12,10,09,29,8.80
2017,12,10,09,30,8.80
2017,12,10,09,31,8.80
2017,12,10,09,32,8.80
2017,12,10,09,33,8.80
2017,12,10,09,34,8.80
2017,12,10,09,35,8.80
2017,12,10,09,36,8.80
2017,12,10,09,37,8.80
2017,12,10,09,38,8.80
2017,12,10,09,39,8.80
2017,12,10,09,40,8.80
2017,12,10,09,41,8.80
2017,12,10,09,42,8.80
2017,12,10,09,43,8.80
2017,12,10,09,44,8.80
2017,12,10,09,45,8.80
2017,12,10,09,46,8.80
2017,12,10,09,47,8.80
2017,12,10,09,48,8.90
2017,12,10,09,49,8.90
2017,12,10,09,50,8.90
2017,12,10,09,51,8.90
2017,12,10,09,52,8.90
2017,12,10,09,53,8.90
2017,12,10,09,54,9.00
2017,12,10,09,55,9.00
2017,12,10,09,56,9.00
2017,12,10,09,57,9.00
2017,12,10,09,58,9.00
2017,12,10,09,59,9.10
2017,12,10,10,00,9.10
2017,12,10,10,01,9.10
2017,12,10,10,02,9.10
2017,12,10,10,03,9.10
2017,12,10,10,04,9.10
2017,12,10,10,05,9.10
2017,12,10,10,06,9.10
2017,12,10,10,07,9.10
2017,12,10,10,08,9.10
2017,12,10,10,09,9.10
2017,12,10,10,10,9.10
2017,12,10,10,11,9.20
2017,12,10,10,12,9.20
2017,12,10,10,13,9.20
2017,12,10,10,14,9.20
2017,12,10,10,15,9.20
2017,12,10,10,16,9.20
2017,12,10,10,17,9.20
2017,12,10,10,18,9.30
2017,12,10,10,19,9.30
2017,12,10,10,20,9.30
2017,12,10,10,21,9.30
2017,12,10,10,22,9.30
2017,12,10,10,23,9.30
2017,12,10,10,24,9.30
2017,12,10,10,25,9.30
2017,12,10,10,26,9.40
2017,12,10,10,27,9.40
2017,12,10,10,28,9.40
2017,12,10,10,29,9.40
2017,12,10,10,30,9.40
2017,12,10,10,31,9.40
2017,12,10,10,32,9.40
2017,12,10,10,33,9.40
2017,12,10,10,34,9.40
2017,12,10,10,35,9.40
2017,12,10,10,36,9.40
2017,12,10,10,37,9.40
2017,12,10,10,38,9.40
2017,12,10,10,39,9.40
2017,12,10,10,40,9.40
2017,12,10,10,41,9.50
2017,12,10,10,42,9.50
2017,12,10,10,43,9.50
2017,12,10,10,44,9.50
2017,12,10,10,45,9.50
2017,12,10,10,46,9.50
2017,12,10,10,47,9.60
2017,12,10,10,48,9.60
2017,12,10,10,49,9.60
2017,12,10,10,50,9.60
2017,12,10,10,51,9.60
2017,12,10,10,52,9.60
2017,12,10,10,53,9.60
2017,12,10,10,54,9.60
2017,12,10,10,55,9.60
2017,12,10,10,56,9.60
2017,12,10,10,57,9.60
2017,12,10,10,58,9.60
2017,12,10,10,59,9.60
2017,12,10,11,00,9.60
2017,12,10,11,01,9.60
2017,12,10,11,02,9.60
2017,12,10,11,03,9.60
2017,12,10,11,04,9.60
2017,12,10,11,05,9.60
2017,12,10,11,06,9.60
2017,12,10,11,07,9.60
2017,12,10,11,08,9.60
2017,12,10,11,09,9.60
2017,12,10,11,10,9.70
2017,12,10,11,11,9.70
2017,12,10,11,12,9.70
2017,12,10,11,13,9.70
2017,12,10,11,14,9.70
2017,12,10,11,15,9.70
2017,12,10,11,16,9.70
2017,12,10,11,17,9.70
2017,12,10,11,18,9.70
2017,12,10,11,19,9.60
2017,12,10,11,20,9.60
2017,12,10,11,21,9.60
2017,12,10,11,22,9.60
2017,12,10,11,23,9.50
2017,12,10,11,24,9.50
2017,12,10,11,25,9.50
2017,12,10,11,26,9.50
2017,12,10,11,27,9.50
2017,12,10,11,28,9.50
2017,12,10,11,29,9.50
2017,12,10,11,30,9.50
2017,12,10,11,31,9.60
2017,12,10,11,32,9.60
2017,12,10,11,33,9.60
2017,12,10,11,34,9.60
2017,12,10,11,35,9.60
2017,12,10,11,36,9.70
2017,12,10,11,37,9.70
2017,12,10,11,38,9.70
2017,12,10,11,39,9.70
2017,12,10,11,40,9.70
2017,12,10,11,41,9.70
2017,12,10,11,42,9.70
2017,12,10,11,43,9.70
2017,12,10,11,44,9.70
2017,12,10,11,45,9.60
2017,12,10,11,46,9.60
2017,12,10,11,47,9.60
2017,12,10,11,48,9.60
2017,12,10,11,49,9.60
2017,12,10,11,50,9.60
2017,12,10,11,51,9.60
2017,12,10,11,52,9.60
2017,12,10,11,53,9.60
2017,12,10,11,54,9.60
2017,12,10,11,55,9.60
2017,12,10,11,56,9.60
2017,12,10,11,57,9.60
2017,12,10,11,58,9.60
2017,12,10,11,59,9.60
2017,12,10,12,00,9.60
2017,12,10,12,01,9.60
2017,12,10,12,02,9.60
2017,12,10,12,03,9.60
2017,12,10,12,04,9.60
2017,12,10,12,05,9.60
2017,12,10,12,06,9.60
2017,12,10,12,07,9.60
2017,12,10,12,08,9.60
2017,12,10,12,09,9.60
2017,12,10,12,10,9.60
2017,12,10,12,11,9.60
2017,12,10,12,12,9.60
2017,12,10,12,13,9.50
2017,12,10,12,14,9.50
2017,12,10,12,15,9.50
2017,12,10,12,16,9.50
2017,12,10,12,17,9.40
2017,12,10,12,18,9.40
2017,12,10,12,19,9.40
2017,12,10,12,20,9.40
2017,12,10,12,21,9.40
2017,12,10,12,22,9.40
2017,12,10,12,23,9.40
2017,12,10,12,24,9.40
2017,12,10,12,25,9.40
2017,12,10,12,26,9.40
2017,12,10,12,27,9.40
2017,12,10,12,28,9.40
2017,12,10,12,29,9.40
2017,12,10,12,30,9.40
2017,12,10,12,31,9.40
2017,12,10,12,32,9.40
2017,12,10,12,33,9.40
2017,12,10,12,34,9.30
2017,12,10,12,35,9.30
2017,12,10,12,36,9.30
2017,12,10,12,37,9.30
2017,12,10,12,38,9.30
2017,12,10,12,39,9.30
2017,12,10,12,40,9.30
2017,12,10,12,41,9.30
2017,12,10,12,42,9.30
2017,12,10,12,43,9.30
2017,12,10,12,44,9.30
2017,12,10,12,45,9.40
2017,12,10,12,46,9.40
2017,12,10,12,47,9.40
2017,12,10,12,48,9.40
2017,12,10,12,49,9.40
2017,12,10,12,50,9.40
2017,12,10,12,51,9.40
2017,12,10,12,52,9.40
2017,12,10,12,53,9.40
2017,12,10,12,54,9.40
2017,12,10,12,55,9.40
2017,12,10,12,56,9.40
2017,12,10,12,57,9.40
2017,12,10,12,58,9.40
2017,12,10,12,59,9.40
2017,12,10,13,00,9.40
2017,12,10,13,01,9.40
2017,12,10,13,02,9.40
2017,12,10,13,03,9.40
2017,12,10,13,04,9.40
2017,12,10,13,05,9.40
2017,12,10,13,06,9.40
2017,12,10,13,07,9.40
2017,12,10,13,08,9.40
2017,12,10,13,09,9.50
2017,12,10,13,10,9.50
2017,12,10,13,11,9.60
2017,12,10,13,12,9.60
2017,12,10,13,13,9.60
2017,12,10,13,14,9.60
2017,12,10,13,15,9.70
2017,12,10,13,16,9.70
2017,12,10,13,17,9.70
2017,12,10,13,18,9.70
2017,12,10,13,19,9.70
2017,12,10,13,20,9.70
2017,12,10,13,21,9.70
2017,12,10,13,22,9.70
2017,12,10,13,23,9.80
2017,12,10,13,24,9.80
2017,12,10,13,25,9.80
2017,12,10,13,26,9.80
2017,12,10,13,27,9.90
2017,12,10,13,28,9.90
2017,12,10,13,29,10.00
2017,12,10,13,30,10.00
2017,12,10,13,31,10.10
2017,12,10,13,32,10.10
2017,12,10,13,33,10.10
2017,12,10,13,34,10.20
2017,12,10,13,35,10.20
2017,12,10,13,36,10.20
2017,12,10,13,37,10.20
2017,12,10,13,38,10.10
2017,12,10,13,39,10.10
2017,12,10,13,40,10.10
2017,12,10,13,41,10.10
2017,12,10,13,42,10.10
2017,12,10,13,43,10.10
2017,12,10,13,44,10.10
2017,12,10,13,45,10.10
2017,12,10,13,46,10.00
2017,12,10,13,47,10.00
2017,12,10,13,48,10.00
2017,12,10,13,49,9.90
2017,12,10,13,50,9.90
2017,12,10,13,51,9.90
2017,12,10,13,52,9.90
2017,12,10,13,53,9.90
2017,12,10,13,54,9.90
2017,12,10,13,55,10.00
2017,12,10,13,56,10.00
2017,12,10,13,57,10.00
2017,12,10,13,58,10.10
2017,12,10,13,59,10.10
2017,12,10,14,00,10.10
2017,12,10,14,01,10.10
2017,12,10,14,02,10.20
2017,12,10,14,03,10.20
2017,12,10,14,04,10.20
2017,12,10,14,05,10.20
2017,12,10,14,06,10.20
2017,12,10,14,07,10.20
2017,12,10,14,08,10.20
2017,12,10,14,09,10.20
2017,12,10,14,10,10.20
2017,12,10,14,11,10.20
2017,12,10,14,12,10.20
2017,12,10,14,13,10.20
2017,12,10,14,14,10.20
2017,12,10,14,15,10.20
2017,12,10,14,16,10.20
2017,12,10,14,17,10.20
2017,12,10,14,18,10.10
2017,12,10,14,19,10.10
2017,12,10,14,20,10.10
2017,12,10,14,21,10.10
2017,12,10,14,22,10.10
2017,12,10,14,23,10.10
2017,12,10,14,24,10.10
2017,12,10,14,25,10.20
2017,12,10,14,26,10.10
2017,12,10,14,27,10.20
2017,12,10,14,28,10.20
2017,12,10,14,29,10.20
2017,12,10,14,30,10.20
2017,12,10,14,31,10.10
2017,12,10,14,32,10.10
2017,12,10,14,33,10.10
2017,12,10,14,34,10.10
2017,12,10,14,35,10.00
2017,12,10,14,36,10.00
2017,12,10,14,37,10.00
2017,12,10,14,38,10.00
2017,12,10,14,39,9.90
2017,12,10,14,40,9.90
2017,12,10,14,41,9.90
2017,12,10,14,42,9.90
2017,12,10,14,43,9.90
2017,12,10,14,44,9.90
2017,12,10,14,45,9.90
2017,12,10,14,46,9.90
2017,12,10,14,47,10.00
2017,12,10,14,48,10.00
2017,12,10,14,49,10.00
2017,12,10,14,50,10.00
2017,12,10,14,51,10.00
2017,12,10,14,52,10.00
2017,12,10,14,53,10.00
2017,12,10,14,54,10.00
2017,12,10,14,55,10.00
2017,12,10,14,56,10.00
2017,12,10,14,57,10.00
2017,12,10,14,58,10.00
2017,12,10,14,59,10.00
2017,12,10,15,00,10.00
2017,12,10,15,01,10.00
2017,12,10,15,02,10.00
2017,12,10,15,03,9.90
2017,12,10,15,04,9.90
2017,12,10,15,05,9.90
2017,12,10,15,06,9.90
2017,12,10,15,07,9.80
2017,12,10,15,08,9.80
2017,12,10,15,09,9.80
2017,12,10,15,10,9.80
2017,12,10,15,11,9.80
2017,12,10,15,12,9.80
2017,12,10,15,13,9.80
2017,12,10,15,14,9.80
2017,12,10,15,15,9.80
2017,12,10,15,16,9.80
2017,12,10,15,17,9.70
2017,12,10,15,18,9.70
2017,12,10,15,19,9.70
2017,12,10,15,20,9.70
2017,12,10,15,21,9.70
2017,12,10,15,22,9.70
2017,12,10,15,23,9.70
2017,12,10,15,24,9.70
2017,12,10,15,25,9.70
2017,12,10,15,26,9.80
2017,12,10,15,27,9.80
2017,12,10,15,28,9.80
2017,12,10,15,29,9.80
2017,12,10,15,30,9.80
2017,12,10,15,31,9.80
2017,12,10,15,32,9.80
2017,12,10,15,33,9.80
2017,12,10,15,34,9.80
2017,12,10,15,35,9.80
2017,12,10,15,36,9.80
2017,12,10,15,37,9.80
2017,12,10,15,38,9.70
2017,12,10,15,39,9.70
2017,12,10,15,40,9.70
2017,12,10,15,41,9.70
2017,12,10,15,42,9.70
2017,12,10,15,43,9.70
2017,12,10,15,44,9.70
2017,12,10,15,45,9.60
2017,12,10,15,46,9.60
2017,12,10,15,47,9.60
2017,12,10,15,48,9.60
2017,12,10,15,49,9.60
2017,12,10,15,50,9.60
2017,12,10,15,51,9.50
2017,12,10,15,52,9.50
2017,12,10,15,53,9.50
2017,12,10,15,54,9.50
2017,12,10,15,55,9.50
2017,12,10,15,56,9.50
2017,12,10,15,57,9.50
2017,12,10,15,58,9.50
2017,12,10,15,59,9.40
2017,12,10,16,00,9.40
2017,12,10,16,01,9.40
2017,12,10,16,02,9.40
2017,12,10,16,03,9.40
2017,12,10,16,04,9.40
2017,12,10,16,05,9.40
2017,12,10,16,06,9.40
2017,12,10,16,07,9.40
2017,12,10,16,08,9.40
2017,12,10,16,09,9.40
2017,12,10,16,10,9.40
2017,12,10,16,11,9.40
2017,12,10,16,12,9.40
2017,12,10,16,13,9.40
2017,12,10,16,14,9.30
2017,12,10,16,15,9.30
2017,12,10,16,16,9.30
2017,12,10,16,17,9.30
2017,12,10,16,18,9.30
2017,12,10,16,19,9.30
2017,12,10,16,20,9.30
2017,12,10,16,21,9.30
2017,12,10,16,22,9.30
2017,12,10,16,23,9.30
2017,12,10,16,24,9.30
2017,12,10,16,25,9.30
2017,12,10,16,26,9.30
2017,12,10,16,27,9.30
2017,12,10,16,28,9.30
2017,12,10,16,29,9.30
2017,12,10,16,30,9.30
2017,12,10,16,31,9.30
2017,12,10,16,32,9.40
2017,12,10,16,33,9.40
2017,12,10,16,34,9.40
2017,12,10,16,35,9.40
2017,12,10,16,36,9.40
2017,12,10,16,37,9.40
2017,12,10,16,38,9.40
2017,12,10,16,39,9.40
2017,12,10,16,40,9.50
2017,12,10,16,41,9.50
2017,12,10,16,42,9.50
2017,12,10,16,43,9.50
2017,12,10,16,44,9.50
2017,12,10,16,45,9.50
2017,12,10,16,46,9.50
2017,12,10,16,47,9.50
2017,12,10,16,48,9.50
2017,12,10,16,49,9.50
2017,12,10,16,50,9.50
2017,12,10,16,51,9.50
2017,12,10,16,52,9.50
2017,12,10,16,53,9.50
2017,12,10,16,54,9.50
2017,12,10,16,55,9.50
2017,12,10,16,56,9.50
2017,12,10,16,57,9.50
2017,12,10,16,58,9.50
2017,12,10,16,59,9.50
2017,12,10,17,00,9.60
2017,12,10,17,01,9.60
2017,12,10,17,02,9.60
2017,12,10,17,03,9.60
2017,12,10,17,04,9.60
2017,12,10,17,05,9.60
2017,12,10,17,06,9.60
2017,12,10,17,07,9.60
2017,12,10,17,08,9.60
2017,12,10,17,09,9.60
2017,12,10,17,10,9.60
2017,12,10,17,11,9.60
2017,12,10,17,12,9.50
2017,12,10,17,13,9.50
2017,12,10,17,14,9.40
2017,12,10,17,15,9.40
2017,12,10,17,16,9.40
2017,12,10,17,17,9.30
2017,12,10,17,18,9.30
2017,12,10,17,19,9.30
2017,12,10,17,20,9.30
2017,12,10,17,21,9.30
2017,12,10,17,22,9.30
2017,12,10,17,23,9.20
2017,12,10,17,24,9.20
2017,12,10,17,25,9.20
2017,12,10,17,26,9.20
2017,12,10,17,27,9.20
2017,12,10,17,28,9.20
2017,12,10,17,29,9.20
2017,12,10,17,30,9.10
2017,12,10,17,31,9.10
2017,12,10,17,32,9.10
2017,12,10,17,33,9.10
2017,12,10,17,34,9.10
2017,12,10,17,35,9.10
2017,12,10,17,36,9.10
2017,12,10,17,37,9.10
2017,12,10,17,38,9.10
2017,12,10,17,39,9.10
2017,12,10,17,40,9.10
2017,12,10,17,41,9.10
2017,12,10,17,42,9.10
2017,12,10,17,43,9.00
2017,12,10,17,44,9.00
2017,12,10,17,45,9.00
2017,12,10,17,46,9.00
2017,12,10,17,47,8.90
2017,12,10,17,48,8.90
2017,12,10,17,49,8.90
2017,12,10,17,50,8.90
2017,12,10,17,51,8.90
2017,12,10,17,52,8.90
2017,12,10,17,53,8.90
2017,12,10,17,54,8.80
2017,12,10,17,55,8.80
2017,12,10,17,56,8.80
2017,12,10,17,57,8.80
2017,12,10,17,58,8.80
2017,12,10,17,59,8.80
2017,12,10,18,00,8.80
2017,12,10,18,01,8.80
2017,12,10,18,02,8.80
2017,12,10,18,03,8.80
2017,12,10,18,04,8.80
2017,12,10,18,05,8.80
2017,12,10,18,06,8.80
2017,12,10,18,07,8.80
2017,12,10,18,08,8.80
2017,12,10,18,09,8.80
2017,12,10,18,10,8.80
2017,12,10,18,11,8.70
2017,12,10,18,12,8.70
2017,12,10,18,13,8.70
2017,12,10,18,14,8.70
2017,12,10,18,15,8.70
2017,12,10,18,16,8.70
2017,12,10,18,17,8.70
2017,12,10,18,18,8.60
2017,12,10,18,19,8.70
2017,12,10,18,20,8.60
2017,12,10,18,21,8.70
2017,12,10,18,22,8.70
2017,12,10,18,23,8.70
2017,12,10,18,24,8.70
2017,12,10,18,25,8.70
2017,12,10,18,26,8.70
2017,12,10,18,27,8.60
2017,12,10,18,28,8.60
2017,12,10,18,29,8.60
2017,12,10,18,30,8.60
2017,12,10,18,31,8.60
2017,12,10,18,32,8.60
2017,12,10,18,33,8.60
2017,12,10,18,34,8.60
2017,12,10,18,35,8.60
2017,12,10,18,36,8.50
2017,12,10,18,37,8.50
2017,12,10,18,38,8.50
2017,12,10,18,39,8.50
2017,12,10,18,40,8.50
2017,12,10,18,41,8.50
2017,12,10,18,42,8.50
2017,12,10,18,43,8.50
2017,12,10,18,44,8.40
2017,12,10,18,45,8.40
2017,12,10,18,46,8.40
2017,12,10,18,47,8.40
2017,12,10,18,48,8.40
2017,12,10,18,49,8.40
2017,12,10,18,50,8.40
2017,12,10,18,51,8.30
2017,12,10,18,52,8.30
2017,12,10,18,53,8.30
2017,12,10,18,54,8.20
2017,12,10,18,55,8.10
2017,12,10,18,56,8.00
2017,12,10,18,57,8.00
2017,12,10,18,58,7.90
2017,12,10,18,59,7.80
2017,12,10,19,00,7.80
2017,12,10,19,01,7.70
2017,12,10,19,02,7.60
2017,12,10,19,03,7.60
2017,12,10,19,04,7.50
2017,12,10,19,05,7.40
2017,12,10,19,06,7.30
2017,12,10,19,07,7.30
2017,12,10,19,08,7.20
2017,12,10,19,09,7.10
2017,12,10,19,10,7.10
2017,12,10,19,11,7.00
2017,12,10,19,12,7.00
2017,12,10,19,13,7.00
2017,12,10,19,14,6.90
2017,12,10,19,15,6.90
2017,12,10,19,16,6.90
2017,12,10,19,17,6.80
2017,12,10,19,18,6.80
2017,12,10,19,19,6.80
2017,12,10,19,20,6.80
2017,12,10,19,21,6.70
2017,12,10,19,22,6.70
2017,12,10,19,23,6.70
2017,12,10,19,24,6.70
2017,12,10,19,25,6.60
2017,12,10,19,26,6.60
2017,12,10,19,27,6.60
2017,12,10,19,28,6.50
2017,12,10,19,29,6.50
2017,12,10,19,30,6.40
2017,12,10,19,31,6.40
2017,12,10,19,32,6.40
2017,12,10,19,33,6.40
2017,12,10,19,34,6.40
2017,12,10,19,35,6.40
2017,12,10,19,36,6.40
2017,12,10,19,37,6.30
2017,12,10,19,38,6.30
2017,12,10,19,39,6.30
2017,12,10,19,40,6.30
2017,12,10,19,41,6.30
2017,12,10,19,42,6.20
2017,12,10,19,43,6.20
2017,12,10,19,44,6.10
2017,12,10,19,45,6.10
2017,12,10,19,46,6.00
2017,12,10,19,47,6.00
2017,12,10,19,48,6.00
2017,12,10,19,49,5.90
2017,12,10,19,50,5.90
2017,12,10,19,51,5.90
2017,12,10,19,52,5.90
2017,12,10,19,53,5.90
2017,12,10,19,54,5.90
2017,12,10,19,55,5.90
2017,12,10,19,56,5.90
2017,12,10,19,57,5.90
2017,12,10,19,58,5.90
2017,12,10,19,59,5.90
2017,12,10,20,00,5.80
2017,12,10,20,01,5.80
2017,12,10,20,02,5.80
2017,12,10,20,03,5.80
2017,12,10,20,04,5.80
2017,12,10,20,05,5.80
2017,12,10,20,06,5.80
2017,12,10,20,07,5.70
2017,12,10,20,08,5.70
2017,12,10,20,09,5.60
2017,12,10,20,10,5.60
2017,12,10,20,11,5.60
2017,12,10,20,12,5.60
2017,12,10,20,13,5.50
2017,12,10,20,14,5.50
2017,12,10,20,15,5.40
2017,12,10,20,16,5.40
2017,12,10,20,17,5.40
2017,12,10,20,18,5.30
2017,12,10,20,19,5.30
2017,12,10,20,20,5.30
2017,12,10,20,21,5.30
2017,12,10,20,22,5.20
2017,12,10,20,23,5.20
2017,12,10,20,24,5.30
2017,12,10,20,25,5.30
2017,12,10,20,26,5.30
2017,12,10,20,27,5.40
2017,12,10,20,28,5.40
2017,12,10,20,29,5.50
2017,12,10,20,30,5.60
2017,12,10,20,31,5.70
2017,12,10,20,32,5.90
2017,12,10,20,33,6.00
2017,12,10,20,34,6.30
2017,12,10,20,35,6.40
2017,12,10,20,36,6.60
2017,12,10,20,37,6.80
2017,12,10,20,38,7.00
2017,12,10,20,39,7.10
2017,12,10,20,40,7.20
2017,12,10,20,41,7.10
2017,12,10,20,42,6.90
2017,12,10,20,43,6.80
2017,12,10,20,44,6.60
2017,12,10,20,45,6.40
2017,12,10,20,46,6.30
2017,12,10,20,47,6.10
2017,12,10,20,48,6.00
2017,12,10,20,49,5.90
2017,12,10,20,50,5.90
2017,12,10,20,51,5.80
2017,12,10,20,52,5.80
2017,12,10,20,53,5.80
2017,12,10,20,54,5.90
2017,12,10,20,55,6.00
2017,12,10,20,56,6.00
2017,12,10,20,57,6.10
2017,12,10,20,58,6.10
2017,12,10,20,59,6.20
2017,12,10,21,00,6.20
2017,12,10,21,01,6.20
2017,12,10,21,02,6.20
2017,12,10,21,03,6.20
2017,12,10,21,04,6.20
2017,12,10,21,05,6.30
2017,12,10,21,06,6.30
2017,12,10,21,07,6.30
2017,12,10,21,08,6.30
2017,12,10,21,09,6.30
2017,12,10,21,10,6.40
2017,12,10,21,11,6.40
2017,12,10,21,12,6.40
2017,12,10,21,13,6.40
2017,12,10,21,14,6.40
2017,12,10,21,15,6.40
2017,12,10,21,16,6.30
2017,12,10,21,17,6.10
2017,12,10,21,18,6.00
2017,12,10,21,19,5.80
2017,12,10,21,20,5.70
2017,12,10,21,21,5.60
2017,12,10,21,22,5.50
2017,12,10,21,23,5.40
2017,12,10,21,24,5.40
2017,12,10,21,25,5.30
2017,12,10,21,26,5.30
2017,12,10,21,27,5.20
2017,12,10,21,28,5.20
2017,12,10,21,29,5.20
2017,12,10,21,30,5.20
2017,12,10,21,31,5.10
2017,12,10,21,32,5.00
2017,12,10,21,33,4.90
2017,12,10,21,34,4.90
2017,12,10,21,35,4.80
2017,12,10,21,36,4.80
2017,12,10,21,37,4.80
2017,12,10,21,38,4.80
2017,12,10,21,39,4.70
2017,12,10,21,40,4.70
2017,12,10,21,41,4.70
2017,12,10,21,42,4.80
2017,12,10,21,43,4.80
2017,12,10,21,44,4.80
2017,12,10,21,45,4.80
2017,12,10,21,46,4.70
2017,12,10,21,47,4.70
2017,12,10,21,48,4.70
2017,12,10,21,49,4.70
2017,12,10,21,50,4.70
2017,12,10,21,51,4.70
2017,12,10,21,52,4.80
2017,12,10,21,53,4.80
2017,12,10,21,54,4.80
2017,12,10,21,55,4.90
2017,12,10,21,56,4.90
2017,12,10,21,57,4.90
2017,12,10,21,58,4.90
2017,12,10,21,59,4.80
2017,12,10,22,00,4.80
2017,12,10,22,01,4.80
2017,12,10,22,02,4.80
2017,12,10,22,03,4.80
2017,12,10,22,04,4.80
2017,12,10,22,05,4.80
2017,12,10,22,06,4.70
2017,12,10,22,07,4.70
2017,12,10,22,08,4.70
2017,12,10,22,09,4.70
2017,12,10,22,10,4.70
2017,12,10,22,11,4.70
2017,12,10,22,12,4.70
2017,12,10,22,13,4.70
2017,12,10,22,14,4.80
2017,12,10,22,15,4.80
2017,12,10,22,16,4.80
2017,12,10,22,17,4.90
2017,12,10,22,18,5.00
2017,12,10,22,19,5.10
2017,12,10,22,20,5.20
2017,12,10,22,21,5.40
2017,12,10,22,22,5.50
2017,12,10,22,23,5.70
2017,12,10,22,24,5.80
2017,12,10,22,25,6.00
2017,12,10,22,26,6.10
2017,12,10,22,27,6.20
2017,12,10,22,28,6.30
2017,12,10,22,29,6.40
2017,12,10,22,30,6.50
2017,12,10,22,31,6.60
2017,12,10,22,32,6.60
2017,12,10,22,33,6.70
2017,12,10,22,34,6.80
2017,12,10,22,35,6.90
2017,12,10,22,36,6.90
2017,12,10,22,37,7.00
2017,12,10,22,38,7.00
2017,12,10,22,39,7.10
2017,12,10,22,40,7.10
2017,12,10,22,41,7.10
2017,12,10,22,42,7.20
2017,12,10,22,43,7.20
2017,12,10,22,44,7.20
2017,12,10,22,45,7.30
2017,12,10,22,46,7.30
2017,12,10,22,47,7.40
2017,12,10,22,48,7.40
2017,12,10,22,49,7.40
2017,12,10,22,50,7.40
2017,12,10,22,51,7.50
2017,12,10,22,52,7.50
2017,12,10,22,53,7.50
2017,12,10,22,54,7.60
2017,12,10,22,55,7.60
2017,12,10,22,56,7.60
2017,12,10,22,57,7.70
2017,12,10,22,58,7.70
2017,12,10,22,59,7.70
2017,12,10,23,00,7.70